Home   Weather   Arequipa   Past weeks

Flag for Peru Past Weather in Arequipa, Arequipa, Peru — Yesterday and Last 2 Weeks

Now
55 °F

Clear.


Feels Like: 55 °F
Forecast: 48 / 72 °F
Wind: No wind

Location: Arequipa Airport

Current Time: Sep 30, 2016 at 8:38:10 PM

Latest Report: Sep 30, 2016 at 8:00 PM


Visibility: 10 mi

Pressure: 30.30 "Hg (22.90 "Hg at 2345m altitude)

Humidity: 44%

Dew Point: 34 °F

Location of ArequipaLocation

Past Weather in Arequipa — Graph

°F

Arequipa Temperature Yesterday

Maximum temperature yesterday: 70 °F (at 10:00 AM)
Minimum temperature yesterday: 50 °F (at 3:00 AM)
Average temperature yesterday: 60 °F

High & Low Weather Summary for the Past Weeks

 TemperatureHumidityPressure
High75 °F (Sep 19, 2:00 PM)48% (Sep 15, 7:00 PM)31.66 "Hg (Sep 15, 7:00 PM)
Low46 °F (Sep 22, 6:00 AM)6% (Sep 21, 9:00 AM)30.24 "Hg (Sep 19, 2:00 PM)
Average60 °F23%30.31 "Hg
* Reported Sep 15 7:00 PM — Sep 30 7:00 PM, Arequipa, Weather by CustomWeather, © 2016

Note: Actual official high and low records may vary slightly from our data, if they occured in-between our weather recording intervals... More about our weather records

Advertising

Arequipa Weather History for the Previous 24 Hours

Scroll right to see more
 ConditionsComfort  
Time TempWeatherWind HumidityBarometerVisibility
7:00 PM
Fri, Sep 30
55 °FClear.2 mph47%30.27 "Hg10 mi
6:00 PM59 °FClear.6 mph42%30.27 "Hg10 mi
5:00 PM61 °FRefreshingly cool.9 mph36%30.24 "Hg1 mi
4:00 PM64 °FPassing clouds.13 mph32%30.24 "HgN/A
3:00 PM68 °FPassing clouds.12 mph28%30.24 "HgN/A
2:00 PM70 °FPassing clouds.12 mph21%30.24 "HgN/A
1:00 PM70 °FSunny.14 mph20%30.24 "Hg10 mi
9:00 AM68 °FSunny.3 mph16%30.30 "Hg10 mi
8:00 AM63 °FPassing clouds.5 mph20%30.30 "HgN/A
7:00 AM59 °FSunny.1 mph23%30.30 "Hg10 mi
6:00 AM46 °FSunny.3 mph34%30.30 "Hg10 mi
5:00 AM46 °FClear.3 mph34%30.30 "Hg10 mi
4:00 AM48 °FClear.5 mph32%30.30 "Hg10 mi
3:00 AM50 °FClear.No wind30%30.27 "Hg10 mi
2:00 AM50 °FClear.5 mph30%30.30 "Hg10 mi
1:00 AM52 °FClear.6 mph32%30.33 "Hg10 mi
12:00 AM52 °FClear.6 mph32%30.33 "Hg10 mi
11:00 PM
Thu, Sep 29
52 °FClear.2 mph32%30.36 "Hg10 mi
10:00 PM54 °FClear.3 mph33%30.36 "Hg10 mi
9:00 PM55 °FClear.3 mph28%30.36 "Hg10 mi
8:00 PM57 °FClear.3 mph31%30.36 "Hg10 mi
Weather by CustomWeather, © 2016

See weather overviewHow to use our weather pages